Content
SEND FEEDBACK

Daily
Averages
Monthly
Summary
Turkmenistan

ASHGABAT, TURKMENISTAN


Home > Asia > Turkmenistan
Elevation: 236 meters     Latitude: 37 58N     Longitude: 058 20E

WEATHER
 
SELECT A DAY
Number of Records: 183,486;   Date Range: 3/15/97 - 12/19/14
 
SHARE

PRINT THIS DATA

[ ← Previous Day ]
WEATHER ALMANAC - 18 OCTOBER, 2013
[ Next Day → ]
[ °F ]   °C
Weather ElementAverageHighLow
Temperature21.8 °C32 °C (3:00 pm)12.2 °C (8:00 am)
Dewpoint1.8 °C6.7 °C (2:00 am)-3 °C (4:00 pm)
Humidity28.7 %51 % (2:00 am)7 % (5:00 pm)
Barometer1015.6 hPa1017.3 hPa (10:00 am)1014.2 hPa (4:00 pm)
Wind Speed9.8 km/h18 km/h (1:00 pm)
Weather ElementAverage
Visibility9.7 km
Wind DirectionESE (112.9 °)

Weather ElementTotal
Precipitation---
Cooling Degree Days3.8 (Base 18.3)
Growing Degree Days12.1 (Base 10)
Averaged from 38 records on 18 October, 2013
WEATHER CONDITIONS BREAKOUT
WIND DIRECTION BREAKOUT
WEATHER BY HOUR - 18 OCTOBER, 2013
[ °F ]   °C
Local TimeTemperatureDewpointHumidityBarometerVisibilityWind DirectionWind SpeedGust SpeedPrecipitationEventsConditions
1:00 AM16 °C3 °C42 %1016.3 hPa10 kmVariable3.5 km/hClear
2:00 AM14.4 °C6.7 °C48 %1016.9 hPa9.7 kmSE (140°)7.2 km/h
2:00 AM15 °C5 °C51 %1016.3 hPa10 kmVariable3.5 km/hClear
3:00 AM16 °C4 °C45 %1015.2 hPa10 kmSSW (200°)7.2 km/hClear
4:00 AM15 °C4 °C48 %1015.2 hPa10 kmSouth (180°)7.2 km/hClear
5:00 AM13.9 °C3.3 °C38 %1016.3 hPa9.7 kmSW (220°)7.2 km/h
5:00 AM14 °C4 °C51 %1015.2 hPa10 kmSW (220°)7.2 km/hClear
6:00 AM14 °C3 °C48 %1015.2 hPa10 kmVariable3.5 km/hClear
6:30 AM13 °C3 °C51 %1015.2 hPa10 kmSouth (190°)7.2 km/hClear
7:00 AM15 °C2 °C42 %1015.2 hPa10 kmSSW (200°)7.2 km/hClear
7:30 AM13 °C3 °C51 %1015.2 hPa10 kmSouth (190°)10.8 km/hClear
8:00 AM12.2 °C4.4 °C49 %1016.9 hPa9.7 kmSSW (210°)7.2 km/h
8:00 AM14 °C3 °C48 %1016.3 hPa10 kmSSW (210°)7.2 km/hClear
9:00 AM20 °C5 °C37 %1016.3 hPa8 kmVariable3.5 km/hClear
9:30 AM23 °C5 °C31 %1016.3 hPa9 kmCalmPartly Cloudy
10:00 AM24 °C4 °C27 %1017.3 hPa8 kmEast (90°)10.8 km/hPartly Cloudy
10:30 AM26 °C2 °C21 %1017.3 hPa10 kmEast (100°)7.2 km/hPartly Cloudy
11:00 AM26.1 °C2.8 °C13 %1015.9 hPa9.7 kmEast (90°)14.3 km/hClear
11:00 AM27 °C2 °C20 %1016.3 hPa10 kmEast (90°)14.3 km/hPartly Cloudy
12:00 PM29 °C1 °C16 %1016.3 hPa10 kmEast (80°)10.8 km/hScattered Clouds
1:00 PM30 °C-1 °C13 %1015.2 hPa10 kmEast (90°)18 km/hMostly Cloudy
2:00 PM30.6 °C1.1 °C8 %1014.6 hPa9.7 kmEast (90°)18 km/hScattered Clouds
2:00 PM31 °C-2 °C12 %1015.2 hPa10 kmEast (90°)18 km/hMostly Cloudy
3:00 PM32 °C-1 °C12 %1015.2 hPa10 kmESE (120°)14.3 km/hMostly Cloudy
4:00 PM32 °C-3 °C10 %1014.2 hPa10 kmSE (130°)18 km/hScattered Clouds
5:00 PM31 °C-2 °C12 %1014.2 hPa10 kmEast (100°)14.3 km/hScattered Clouds
5:00 PM31.1 °C0 °C7 %1014.2 hPa9.7 kmEast (90°)14.3 km/hScattered Clouds
6:00 PM29 °C0 °C15 %1014.2 hPa10 kmEast (100°)14.3 km/hMostly Cloudy
7:00 PM26 °C1 °C20 %1015.2 hPa10 kmESE (120°)14.3 km/hMostly Cloudy
8:00 PM24 °C0 °C21 %1015.2 hPa10 kmSE (140°)10.8 km/hMostly Cloudy
8:00 PM25.6 °C1.7 °C12 %1014.6 hPa9.7 kmSE (140°)14.3 km/hScattered Clouds
8:30 PM24 °C-1 °C19 %1015.2 hPa10 kmSE (130°)14.3 km/hMostly Cloudy
9:00 PM23 °C1 °C23 %1015.2 hPa10 kmESE (110°)14.3 km/hMostly Cloudy
9:30 PM21 °C0 °C25 %1015.2 hPa10 kmVariable3.5 km/hMostly Cloudy
10:00 PM21 °C0 °C25 %1015.2 hPa9 kmSW (220°)7.2 km/hScattered Clouds
10:30 PM21 °C0 °C25 %1015.2 hPa10 kmNNE (20°)7.2 km/hScattered Clouds
11:00 PM18.3 °C2.2 °C23 %1015.2 hPa9.7 kmENE (60°)3.5 km/hClear
11:00 PM19 °C1 °C30 %1015.2 hPa9 kmSE (130°)7.2 km/hPartly Cloudy
Hourly data recorded from UTAA, located 0 kilometers away from Ashgabat, Turkmenistan







STORIES FROM OUR PARTNERS